Vertical_Velocity
-0 -0 0 0 -0 -1 -1 -0 -0 -0 -0 -0 -0 -0 -1 -1 -1 -1 -1 -1 -1 -1 -1 -0 -0 -0 -0 -0 -0 -0 -0 -1 -1 -1 -1 -1 -1 -1 -0 0 1 1 1 1 1 1 0 -1 -1 -1 -1 0 1 1 -0 0 0 1 1 0 0 1 0 0 0 -0 -0 -0 -0 -1 -0 -0 -1 -1 -1 -1 -1 -1 -1 -1 -1 -1 -0 -0 -0 -0 -0 0 0 0 0 -0 -0 -0 -0 -0 -0 -0 -0 -0 -0 -0 -0
-0 0 0 0 -0 -1 -1 -1 -0 0 -0 -0 -0 -1 -1 -1 -1 -1 -1 -1 -1 -1 -1 -1 -0 -0 -0 -0 -0 -0 -0 -1 -1 -1 -1 -1 -1 -1 -0 0 1 1 1 1 1 1 0 -1 -1 -1 -1 0 1 1 -0 -0 0 1 1 0 0 0 0 0 0 -0 -0 -0 -0 -0 -0 -0 -1 -1 -1 -1 -1 -1 -1 -1 -1 -1 -0 -0 0 0 0 0 0 0 0 0 -0 -0 -1 -1 -1 -1 -1 -0 -0 -0 -0
0 0 1 1 0 -1 -1 -1 -1 -0 -0 -0 -1 -1 -1 -1 -1 -1 -1 -1 -1 -1 -1 -1 -1 -0 -0 -0 -0 -0 -0 -1 -1 -1 -1 -1 -1 -1 -0 -0 0 1 1 1 1 1 0 -0 -1 -1 -0 0 1 0 -0 -0 0 1 1 1 1 0 0 0 0 0 -0 -0 -0 -0 -0 -1 -1 -1 -1 -1 -1 -1 -1 -1 -1 -1 -0 -0 0 0 0 -0 0 0 0 0 -0 -0 -1 -1 -1 -1 -1 -1 -0 -0 -0
0 0 1 1 0 -0 -1 -1 -1 -1 -1 -0 -0 -0 -0 -1 -1 -1 -1 -1 -1 -1 -1 -1 -1 -1 -1 -0 -0 -0 -0 -1 -1 -1 -1 -1 -1 -1 -1 -0 -0 0 1 1 1 1 1 -0 -1 -1 -0 0 0 -0 -0 -0 0 1 1 1 1 0 0 0 0 0 -0 -0 -0 -0 -0 -1 -1 -1 -1 -1 -1 -1 -1 -1 -0 -0 -1 -0 0 0 0 -0 0 1 0 0 0 -0 -0 -1 -1 -1 -1 -1 -1 -0 -0
-0 0 0 1 1 0 -1 -1 -1 -1 -0 -0 -0 -0 0 -0 -1 -1 -1 -1 -1 -1 -1 -1 -1 -1 -1 -0 -0 -0 -0 -0 -1 -1 -0 -0 -1 -1 -1 -1 -0 0 1 1 2 1 1 -0 -1 -1 0 1 0 -0 -1 -0 0 1 1 1 0 0 0 0 0 -0 -0 -0 -0 -0 -0 -0 -1 -1 -1 -1 -1 -1 -1 -1 -0 -0 -0 -0 0 0 0 0 0 0 1 1 0 0 0 -0 -1 -1 -1 -1 -1 -1 -0
-0 -0 0 1 1 0 -0 -1 -1 -1 -1 -1 -1 -0 0 -0 -0 -0 -1 -1 -1 -1 -1 -1 -1 -1 -1 -0 -0 -0 -0 -0 -1 -1 -0 -0 -0 -1 -1 -1 -0 -0 0 1 1 2 1 -0 -1 -1 -0 1 1 -0 -1 -1 -0 -0 0 0 0 -0 -0 -0 -0 -0 -0 -0 -1 -0 -0 -0 -1 -1 -1 -1 -1 -1 -1 -1 -0 -0 -0 -0 0 0 1 0 0 1 1 1 1 1 0 0 -0 -1 -1 -1 -1 -1 -1
-1 -1 -0 0 0 0 -0 -1 -1 -1 -1 -1 -1 -0 0 -0 -0 -0 -1 -1 -1 -1 -1 -1 -1 -1 -1 -1 -0 -0 0 -0 -1 -1 -1 -0 -0 -1 -1 -1 -0 -0 0 1 1 2 1 0 -1 -1 -1 0 1 0 -1 -1 -1 -1 -0 -0 -0 -0 -0 -0 -0 -0 -0 -0 -0 -0 -0 -0 -1 -1 -1 -1 -1 -1 -1 -1 -1 -0 -0 0 0 0 0 1 1 1 1 1 1 1 0 -0 -0 -0 -1 -1 -1 -1 -1
-1 -1 -0 -0 0 0 -0 -0 -1 -1 -1 -2 -1 -1 -0 -0 -0 -0 -1 -1 -1 -1 -1 -1 -1 -1 -1 -1 -1 -0 0 0 -0 -1 -1 -0 -0 -0 -1 -1 -1 -0 -0 0 1 1 2 0 -1 -1 -1 0 0 0 -1 -1 -1 -1 -1 -1 -0 -0 -0 -0 -0 -0 -0 -0 -0 -0 -0 -0 -0 -1 -1 -1 -1 -1 -1 -1 -1 -1 -0 -0 -0 0 0 0 1 1 1 1 1 1 0 0 -0 -0 -0 -1 -1 -1 -1
-1 -1 -1 -0 -0 -0 -0 -0 -1 -1 -1 -2 -2 -1 -1 -1 -1 -1 -1 -1 -1 -1 -1 -1 -1 -1 -1 -1 -1 -0 0 0 -0 -0 -1 -0 -0 -0 -1 -1 -1 -0 -0 0 1 1 2 1 -0 -1 -1 0 0 0 -0 -1 -1 -1 -1 -1 -0 -0 -0 -0 -0 -0 -0 -0 -0 -0 -0 -0 -0 -0 -1 -1 -1 -0 -0 -1 -1 -0 -0 -0 0 0 0 0 1 1 1 1 1 1 1 0 0 0 -0 -0 -0 -1 -1
-1 -1 -0 -0 -0 -0 -0 -1 -1 -1 -1 -1 -2 -2 -1 -1 -1 -1 -1 -1 -1 -1 -1 -1 -1 -1 -1 -1 -1 -0 0 0 0 -0 -1 -0 -0 -0 -0 -0 -0 -0 -0 -0 0 1 2 1 -0 -1 -1 0 1 0 -0 -0 -0 -0 -0 -0 -0 -0 -0 -0 -0 -0 -0 -0 -0 -1 -1 -0 -0 -0 -0 -0 -0 -0 -0 -0 -0 -0 -0 -0 0 0 0 0 0 1 1 1 1 1 1 1 0 0 0 0 -0 -0 -0
-1 -2 -0 -0 -0 -1 -1 -1 -1 -1 -1 -1 -2 -2 -1 -1 -1 -1 -1 -1 -1 -1 -1 -1 -1 -1 -1 -1 -1 -1 -0 0 0 0 -0 -0 -0 0 -0 -0 -0 -0 -0 -0 0 1 2 1 0 -1 -1 -0 1 1 0 -0 -0 0 0 -0 -0 -0 -0 -0 -0 -0 -0 -0 -0 -0 -0 -0 -0 -0 -0 -0 -0 -0 -0 -0 -0 -0 -0 0 0 0 0 0 0 0 0 1 1 1 1 0 0 0 0 0 -0 -0 -0
-1 -2 -0 0 -0 -1 -1 -1 -1 -0 -1 -1 -1 -2 -1 -1 -1 -1 -1 -1 -1 -1 -1 -1 -1 -1 -1 -1 -1 -1 -0 0 0 0 0 -0 -0 -0 0 0 0 -0 -0 -0 0 1 1 1 0 -1 -1 -0 0 1 1 0 -0 0 0 0 0 -0 -0 -0 -0 -0 -0 -0 -0 -0 -0 -0 -0 -0 -0 -0 -0 0 0 -0 -0 -0 -0 0 0 0 0 0 0 0 0 0 0 0 0 0 0 0 0 0 -0 -0 -0
-1 -2 -0 0 -0 -0 -1 -1 -1 -0 -0 -1 -1 -1 -1 -1 -1 -1 -1 -1 -1 -1 -1 -1 -1 -1 -1 -1 -1 -1 -0 -0 0 0 0 0 -0 0 0 0 0 0 -0 -0 0 1 1 2 1 -0 -1 -1 0 1 1 0 0 -0 0 0 0 -0 -0 -0 -1 -1 -0 -0 -0 -0 -0 -0 -0 -0 -0 -0 0 0 0 0 0 -0 -0 0 0 0 0 0 0 0 0 0 0 0 0 0 0 0 0 0 0 0 0
-1 -1 -1 -0 -0 -0 -1 -1 -0 0 0 -0 -1 -1 -1 -1 -1 -1 -1 -1 -1 -1 -1 -1 -1 -1 -1 -1 -1 -1 -1 -0 -0 -0 0 0 0 0 0 0 1 1 0 -0 -0 0 1 2 1 -0 -2 -1 -0 1 1 1 0 -0 -0 0 0 -0 -0 -0 -1 -1 -1 -0 -0 -0 -0 -0 0 0 0 0 0 0 0 0 0 0 0 0 0 0 0 0 0 0 0 0 0 0 0 0 0 0 0 0 0 0 0
-1 -1 -2 -1 -0 1 2 1 1 1 1 0 -0 -1 -1 -1 -1 -1 -1 -1 -1 -1 -1 -1 -1 -1 -1 -2 -2 -1 -1 -1 -0 -0 -0 -0 -0 0 0 1 1 1 1 0 -0 0 1 2 1 0 -1 -1 -1 0 1 1 1 0 -0 0 0 0 -0 -0 -1 -1 -1 -0 -0 -0 -0 -0 0 0 0 0 0 0 0 0 0 0 0 0 0 0 0 0 0 0 0 0 0 0 0 0 0 0 0 0 0 0 0
-1 -1 -2 -3 -0 4 7 5 4 3 -0 0 -0 -1 -1 -1 -1 -1 -1 -1 -1 -1 -1 -1 -1 -1 -2 -2 -2 -2 -1 -1 -1 -0 -0 -0 -0 -0 0 0 1 1 1 0 -0 0 1 1 1 1 -1 -1 -1 -0 1 2 1 1 -0 -0 0 0 0 -0 -0 -0 -1 -0 -0 0 -0 -0 0 0 0 0 0 0 0 0 0 0 0 0 0 0 0 0 0 0 0 0 0 0 0 0 0 0 0 0 0 0 0
-1 -1 -2 -3 -1 3 8 7 6 4 -1 -0 -0 -0 -1 -1 -1 -1 -1 -1 -1 -1 -1 -1 -1 -1 -2 -2 -2 -2 -2 -1 -1 -1 -1 -0 -0 -0 0 0 1 1 1 0 0 -0 0 1 1 1 -0 -1 -1 -1 1 2 2 1 0 -0 0 0 0 -0 -0 -0 -0 -0 0 0 -0 -0 0 0 0 0 0 0 0 0 0 0 0 0 -0 -0 -0 0 0 0 0 0 0 0 0 0 0 0 0 0 0 0 0
-1 -1 -2 -3 -0 4 6 5 4 2 -1 -0 -0 0 0 -0 -0 -1 -1 -1 -1 -2 -1 -1 -1 -1 -2 -2 -2 -2 -2 -1 -1 -1 -1 -1 -0 -0 0 0 1 1 1 1 0 -0 0 1 1 1 0 -1 -1 -1 0 2 2 2 1 0 0 0 0 0 0 0 -0 -0 0 0 0 0 0 0 0 0 0 0 0 0 0 0 0 0 0 0 -0 0 0 0 0 0 0 -0 -0 0 0 0 0 0 0 0 0
-1 -1 -1 -2 0 3 4 1 0 -0 -1 -0 1 1 1 0 0 -0 -0 -1 -1 -2 -2 -2 -2 -2 -2 -2 -2 -2 -2 -1 -1 -1 -1 -1 -0 -0 0 0 1 1 1 1 0 0 0 0 1 1 0 -0 -1 -1 -0 2 3 3 1 0 0 0 0 0 0 0 0 0 0 0 0 0 0 0 0 0 0 0 0 0 0 0 0 0 0 0 0 0 0 0 0 0 0 0 -0 -0 -0 -0 -0 0 0 0 0
-1 -0 -1 -2 -0 2 4 -0 -1 -0 -0 2 3 2 0 1 1 1 0 0 -1 -1 -2 -2 -2 -2 -2 -3 -3 -3 -2 -2 -1 -1 -1 -1 -0 0 0 0 0 1 1 1 1 0 0 0 1 1 0 -0 -1 -1 -0 1 3 3 2 1 0 0 0 0 0 0 0 0 0 0 0 0 0 -0 -0 0 0 0 -0 0 0 0 0 0 0 0 0 0 0 1 1 1 0 0 -0 -0 -0 -0 -0 -0 -0 0 0
-1 -0 -1 -1 -1 0 2 -1 -1 -0 1 5 4 2 0 1 1 1 1 1 -0 -1 -2 -2 -2 -2 -3 -3 -3 -3 -2 -2 -1 -1 -1 -1 -0 0 1 1 0 0 0 0 1 1 0 0 1 1 0 -0 -1 -1 -0 1 2 3 2 1 1 1 1 1 1 0 0 0 1 1 1 0 0 -0 -0 0 0 0 -0 0 0 0 0 0 0 1 1 1 1 1 1 1 1 0 0 -0 -0 -0 -0 -0 -0 -0 0
-1 -1 -1 -1 -1 -1 -1 -1 -1 -1 0 3 3 2 5 2 1 1 1 1 1 -0 -1 -2 -2 -2 -3 -3 -3 -3 -2 -2 -2 -2 -2 -1 -0 0 1 1 1 0 -0 0 0 0 0 1 1 1 0 0 -0 -1 -0 1 2 3 3 2 1 1 1 1 1 1 0 1 1 1 1 0 0 0 0 0 0 0 0 0 0 0 0 1 1 1 1 1 1 1 1 1 1 1 0 -0 -0 -0 -0 -0 -0 -0 0
-1 -1 -1 -1 -2 -2 -1 -1 -1 -1 -1 0 1 2 5 1 0 0 1 1 1 0 -0 -1 -2 -2 -3 -3 -3 -3 -2 -2 -2 -2 -2 -1 -1 0 1 1 1 0 -0 -0 -0 0 0 1 1 1 1 0 -0 -0 -0 1 2 3 2 2 1 1 1 1 1 1 1 1 1 1 1 0 0 0 0 0 0 0 0 0 0 0 0 1 1 1 1 1 1 1 1 1 1 1 0 0 -0 -0 -0 -0 -0 -0 0
-1 -1 -2 -2 -2 -2 -2 -1 -1 -1 -2 -1 0 1 2 1 1 0 0 1 1 1 0 -0 -1 -2 -2 -2 -3 -3 -2 -2 -2 -2 -2 -2 -1 0 1 1 1 1 0 -0 -0 -0 0 1 1 1 1 0 -0 -0 -0 1 2 2 2 2 1 1 1 1 1 1 1 1 1 1 1 0 0 0 0 0 0 0 0 0 0 0 0 1 1 1 1 1 1 1 1 1 1 1 0 0 -0 -0 -0 -0 -0 -0 -0
-2 -1 -2 -2 -2 -2 -2 -2 -2 -2 -2 -1 -0 1 1 2 1 1 -0 0 1 1 1 0 -1 -1 -1 -1 -2 -2 -2 -2 -2 -2 -2 -2 -1 -0 1 1 1 1 0 -0 -0 -0 0 1 1 1 1 1 0 -0 -1 0 2 2 2 2 1 1 1 1 1 1 1 1 1 1 1 0 0 0 0 0 0 0 0 0 0 0 0 1 1 1 1 1 1 1 1 1 1 1 1 0 0 -0 -0 -0 -0 -0 -0
-1 -0 -2 -2 -2 -2 -2 -2 -2 -2 -2 -2 -1 0 1 2 1 1 0 1 1 1 1 0 -0 -0 -0 -1 -1 -2 -2 -2 -2 -2 -2 -2 -1 -1 0 1 1 1 0 -0 -0 -0 -0 0 1 1 2 1 0 -1 -1 0 1 2 2 2 1 1 1 1 1 0 0 1 1 1 1 1 1 0 0 0 0 -0 0 0 0 0 0 0 0 1 1 1 1 1 1 1 1 1 1 0 0 -0 -0 -0 -0 -0 -0
-1 -0 -2 -2 -2 -3 -2 -2 -2 -3 -3 -2 -1 -0 1 1 1 1 1 1 1 1 1 1 0 0 -0 -1 -1 -1 -1 -1 -1 -2 -2 -2 -1 -1 -0 0 1 1 1 0 -0 -0 -0 0 1 1 1 1 0 -1 -1 -0 1 2 3 2 1 1 1 1 1 0 0 0 1 1 1 1 1 1 1 0 0 -0 -0 0 0 0 0 0 0 0 0 0 1 1 1 1 1 1 1 1 0 0 -0 -0 -0 -0 -0
-1 -2 -3 -3 -3 -3 -2 -3 -3 -3 -3 -3 -2 -1 0 1 1 1 2 2 2 1 1 0 0 0 -0 -0 -0 -0 -1 -1 -1 -2 -2 -1 -1 -1 -1 -0 1 1 1 0 -0 -0 -0 -0 0 1 1 1 0 -1 -1 -1 1 2 3 2 1 1 1 1 1 0 0 0 0 0 1 1 1 1 0 1 0 0 -0 0 0 0 0 0 0 0 0 0 1 1 1 1 1 1 1 1 0 0 -0 -0 -0 -0 -0
-3 -3 -2 -2 -2 -3 -3 -3 -3 -3 -3 -2 -1 -1 -1 -0 0 1 2 2 2 1 1 0 0 -0 0 -0 -0 0 -0 -1 -1 -1 -1 -1 -1 -1 -1 -1 -0 0 1 1 0 -0 -0 -0 0 1 1 1 0 -1 -1 -1 -0 1 3 2 2 1 1 1 1 1 0 -0 -0 -0 -0 0 0 0 0 0 0 0 0 0 0 0 0 0 0 0 0 0 0 1 1 1 1 1 1 1 1 0 0 -0 -0 -0 0
-4 -3 -1 -2 -2 -2 -2 -3 -3 -3 -4 -2 -1 -1 -2 -1 -0 0 1 1 1 1 1 1 0 -0 -0 -0 -0 0 -1 -1 -1 -1 -1 -1 -1 -1 -1 -1 -0 0 1 1 0 -0 -0 0 0 1 1 0 -0 -1 -1 -2 -1 0 2 2 2 1 0 0 1 1 1 0 -0 -0 -0 -0 -0 0 0 0 0 0 0 0 0 0 0 0 0 0 0 0 0 1 1 1 1 1 1 1 1 0 0 0 -0 -0 0
-2 -2 -1 -1 -1 -1 -2 -3 -3 -4 -4 -2 -2 -2 -3 -2 -1 -0 -0 0 1 1 2 1 0 -0 -1 -0 -0 -0 -1 -0 0 -0 -1 -1 -1 -0 -0 -1 -0 -0 0 0 0 0 0 0 0 0 1 1 0 -1 -2 -2 -2 -1 1 2 2 1 0 0 0 0 1 1 0 -0 -0 -0 -0 -0 0 0 0 0 0 0 0 0 0 0 0 0 0 0 1 1 1 1 1 1 1 1 1 0 0 0 0 0 0
-1 -0 -0 -0 -1 -2 -3 -3 -3 -4 -4 -2 -2 -3 -3 -2 -1 -1 -1 -0 0 1 1 1 0 -0 -0 -0 -1 -1 -1 0 1 0 -0 -0 -0 -0 -0 -0 -0 -0 -0 0 1 1 0 -0 0 0 1 1 0 -0 -1 -2 -2 -1 -0 1 2 1 1 0 -0 0 0 1 1 1 0 0 0 -0 0 0 0 0 0 1 1 0 0 0 0 0 0 1 1 1 1 1 1 1 1 1 1 0 0 0 0 0 0
0 1 -0 -0 -1 -3 -4 -2 -2 -1 4 6 2 -3 -3 -2 -1 -1 -1 -0 -0 0 1 1 1 0 0 -0 -1 -1 -0 1 1 1 0 0 0 -0 -1 -0 -0 -0 -0 1 1 1 0 0 0 -0 0 1 0 -0 -1 -2 -2 -2 -1 0 1 2 1 0 -0 -0 -0 0 1 1 1 1 0 0 0 -0 -0 0 0 1 1 1 1 1 1 1 1 1 1 1 1 1 1 1 1 1 1 1 0 0 0 0 0
0 0 -1 -1 -2 -3 -2 -3 -3 2 12 11 5 -1 -1 -1 -1 -1 -0 -0 0 1 1 1 1 1 1 0 -0 -1 -0 0 1 2 2 1 1 0 -1 -0 -1 -1 -0 0 1 1 1 1 0 -0 -0 0 0 0 -0 -1 -2 -2 -1 -0 1 2 2 1 0 -0 -0 -0 0 1 1 1 1 1 0 0 -0 0 0 1 1 1 1 1 1 1 1 1 1 1 1 1 1 1 1 1 1 1 1 0 0 0 0
0 -1 -1 -1 -2 -2 -2 -4 -2 3 13 12 7 3 -0 -0 0 0 0 0 1 1 2 2 2 1 1 1 0 -0 -0 -0 2 3 3 3 2 0 -0 -1 -1 -1 -1 -0 0 1 1 2 1 0 -0 -0 -0 -0 0 -0 -1 -1 -1 -1 0 1 2 2 1 0 -0 -0 -0 0 0 1 1 1 1 0 0 0 0 0 1 1 1 1 1 1 1 1 1 1 1 1 1 1 1 1 1 1 1 0 0 0 -0
0 -0 -1 -2 -2 -3 -2 -3 -2 1 6 10 9 6 2 2 1 1 1 1 2 2 1 2 2 2 1 1 1 0 -1 0 6 9 5 4 2 1 0 -1 -1 -2 -1 -1 -1 -0 1 2 2 1 1 -0 -0 -0 0 -0 -1 -1 -1 -1 -0 1 1 1 1 1 0 0 0 0 0 0 1 1 1 0 0 0 0 0 0 0 1 1 1 1 1 1 1 1 1 1 1 1 1 1 1 1 1 0 0 -0 -0
-1 -0 -0 -2 -2 -2 -2 -1 -1 -0 0 4 9 12 8 7 4 1 2 2 2 2 1 2 2 1 1 2 1 0 -1 0 8 15 12 6 3 2 2 0 -1 -1 -1 -1 -2 -1 1 1 2 2 2 1 0 0 -0 -0 -0 -0 -1 -1 -0 0 1 1 1 1 0 0 0 0 0 0 1 1 1 1 0 0 0 0 0 -0 0 0 1 1 1 1 1 1 1 1 1 1 1 1 1 1 1 0 0 -0 -0
-1 -0 0 -1 -2 -2 -1 -0 2 3 2 0 4 10 13 10 6 3 3 3 3 2 2 2 1 1 2 2 1 0 -2 -1 5 12 16 10 5 2 2 1 1 -0 -0 -1 -2 -1 0 0 1 2 3 2 2 1 0 0 0 -0 -1 -0 -0 -0 0 1 1 0 0 0 0 0 0 1 1 1 1 1 1 1 0 0 0 -0 0 0 0 1 1 1 1 1 1 1 1 1 1 1 1 1 1 0 0 -0 -0
-1 -0 0 -0 -0 0 2 5 7 9 8 4 2 2 7 7 8 8 7 5 4 3 3 2 1 1 2 2 1 1 -1 -1 1 5 13 12 6 1 2 2 2 2 1 -0 -0 -0 -0 -0 0 1 2 3 2 2 1 1 1 0 -0 -0 -0 -0 0 0 1 1 1 0 0 0 0 0 1 1 1 1 1 1 1 0 0 -0 0 0 0 0 1 1 1 1 1 1 1 1 1 1 1 1 1 0 0 -0 -0
-1 -0 -0 -0 0 4 12 10 7 6 13 12 7 3 5 3 5 9 14 12 8 6 4 2 2 2 2 2 2 2 -0 0 1 2 7 10 5 -0 -0 2 4 4 3 2 1 1 0 0 -0 0 1 1 1 1 2 2 2 1 0 0 -0 -0 -0 0 1 1 1 1 1 0 0 0 0 1 1 1 1 1 0 0 0 -0 -0 0 0 0 1 1 1 1 1 1 1 1 1 1 1 0 1 0 0 -0 -0
-0 -0 -0 -1 1 8 23 14 5 2 8 12 16 18 19 12 7 6 14 22 17 8 4 4 3 2 0 2 4 4 2 3 3 3 4 5 2 -2 -2 2 5 6 5 4 3 2 1 1 0 -0 -1 -1 -0 1 2 2 1 1 1 1 0 -0 -1 -0 1 1 2 1 1 1 0 0 0 1 1 1 1 1 0 -0 -0 -0 -0 -0 -0 0 0 1 1 1 1 1 0 1 0 1 1 0 1 1 0 -0 -0
-0 0 0 -0 0 6 19 15 9 3 1 10 25 36 32 26 20 15 14 19 16 10 4 6 6 4 2 4 6 7 3 4 4 4 4 3 1 -1 -1 3 5 6 6 4 4 3 3 2 1 0 -1 -1 -0 1 0 0 1 1 1 1 0 -0 -0 -0 0 1 2 2 2 1 1 0 0 1 1 1 1 1 0 -0 -0 -0 -0 -0 -0 0 0 0 0 0 1 0 0 0 0 1 1 0 0 0 0 0 -0
-0 1 1 0 -0 0 4 8 7 5 -0 9 29 45 42 36 30 22 12 12 10 8 5 8 9 9 10 10 10 7 1 0 1 3 4 2 0 -0 2 4 4 4 6 6 5 3 3 2 2 1 0 1 1 1 -0 -0 -0 -0 0 0 0 0 0 0 0 1 1 2 2 2 1 1 1 1 1 1 1 0 0 -0 -0 -1 -1 -1 -0 -0 -0 0 0 0 0 0 0 0 0 0 0 0 0 0 0 0 -0
-0 1 2 1 0 -1 -1 1 3 3 0 2 16 29 31 25 20 16 10 7 6 5 4 8 10 11 11 9 7 4 -2 -3 -3 -1 1 1 0 0 1 4 3 3 5 8 7 4 1 1 1 1 1 2 3 2 1 -0 -1 -1 -1 -0 1 1 1 0 0 0 0 1 1 2 1 1 1 0 0 0 1 1 0 -0 -0 -1 -1 -1 -1 -0 -0 -0 -0 -0 -0 -0 -0 0 0 0 0 0 0 0 0 0 0
-0 1 2 2 2 1 -0 0 1 2 1 -0 3 9 13 8 7 7 7 5 5 4 2 5 7 8 5 3 1 0 1 -0 -2 -4 -3 -2 -1 -0 1 2 2 2 2 5 5 3 -1 1 0 0 2 3 4 3 3 1 -0 -1 -1 0 1 1 1 1 0 -0 -0 -0 0 1 1 1 1 0 0 1 1 1 1 0 -0 -1 -1 -1 -1 -1 -0 -0 -0 -1 -1 -0 -0 0 0 0 0 0 0 0 0 0 0
-0 1 2 2 2 1 -0 0 1 2 2 0 0 2 5 3 2 2 2 2 2 2 3 3 5 7 7 6 3 2 3 5 3 -1 -4 -5 -4 -2 0 1 1 1 0 0 1 0 -1 -1 -1 -0 1 2 3 4 4 3 2 1 2 1 1 1 1 1 0 -0 -1 -1 -0 0 1 1 0 0 0 1 1 1 1 0 -0 -1 -1 -1 -1 -1 -0 -0 -1 -1 -1 -1 -0 -0 -0 -0 0 0 0 -0 0 0 0
-0 1 1 2 2 1 0 0 1 1 2 1 1 1 2 1 1 0 0 0 0 2 3 7 8 9 10 8 6 4 4 7 7 6 2 -2 -4 -3 -2 -1 -0 0 -0 -1 -0 0 -1 -2 -1 -1 0 1 2 3 4 4 4 4 5 3 2 1 1 1 0 -0 -1 -1 -1 -0 0 0 0 0 -0 1 1 2 2 1 0 -1 -1 -1 -1 -1 -0 -1 -1 -1 -1 -1 -0 -0 -0 -0 -0 0 -0 -0 -0 0 0
-1 -0 -0 0 0 0 -0 0 0 1 2 2 1 1 0 1 1 0 -0 1 1 1 2 10 12 11 9 7 5 4 5 6 8 9 11 6 2 -2 -3 -1 -1 -1 -1 -0 0 0 -1 -2 -2 -2 -1 0 1 2 3 3 4 6 7 5 4 3 2 1 0 -0 -1 -1 -1 -1 -1 -0 -0 -0 0 0 1 1 2 2 1 0 -1 -1 -1 -1 -1 -1 -1 -1 -1 -1 -1 -1 -0 -1 -1 -1 -1 -0 -0 -0 0
-2 -2 -2 -1 -1 -1 -1 -0 0 1 2 2 2 1 0 0 0 0 1 1 1 1 3 12 13 10 6 4 2 2 6 8 10 12 16 16 12 7 4 5 3 0 -2 -1 -1 -1 -2 -2 -3 -3 -1 -1 0 1 1 2 3 4 5 6 6 5 4 3 1 -1 -1 -1 -1 -1 -2 -2 -1 -0 0 0 1 1 2 2 1 1 0 -1 -1 -1 -1 -1 -0 -0 -0 -1 -1 -1 -1 -1 -1 -1 -0 -0 -0 -0 0
-2 -2 -2 -2 -1 -1 -1 -1 -1 -0 0 1 1 1 1 0 0 0 1 1 1 1 3 8 12 14 9 1 -1 2 10 15 19 20 20 18 18 18 20 20 16 8 1 -2 -2 -2 -3 -3 -2 -2 -1 -1 -0 0 0 1 1 1 2 5 5 6 6 4 2 0 -1 -1 -1 -1 -2 -3 -2 -2 -1 0 0 1 1 1 1 1 1 0 -0 -1 -1 -1 -0 0 0 -0 -0 -1 -1 -1 -1 -0 1 1 0 -0 0
-2 -2 -2 -2 -2 -2 -2 -2 -2 -2 -2 -1 1 2 2 1 0 0 1 1 1 1 1 2 9 14 9 -0 -1 6 19 23 26 27 25 15 14 19 27 29 27 21 12 5 1 -1 -3 -3 -2 -0 2 1 1 1 -0 -0 -0 -1 -1 1 3 5 6 5 4 2 0 -1 -1 -1 -2 -3 -3 -3 -2 -1 0 0 0 0 1 1 1 1 1 1 0 -0 0 1 1 0 -0 -1 -1 -1 -0 0 1 2 2 2 1
-3 -2 -2 -2 -2 -2 -3 -2 -3 -3 -2 -1 -0 1 2 2 1 0 1 1 1 1 1 -0 3 6 8 1 0 5 15 18 22 26 30 24 22 22 27 27 25 22 19 16 9 3 1 0 2 4 7 5 4 2 -1 -1 -2 -2 -2 -1 1 2 4 4 4 3 2 0 -0 -0 -0 -2 -3 -4 -3 -2 -1 -0 0 0 0 0 0 0 1 1 1 0 1 1 1 0 -0 -1 -1 -1 -0 0 1 2 4 4 3
-3 -3 -2 -2 -2 -3 -2 -3 -3 -3 -2 -2 -1 -1 0 2 1 1 1 1 1 1 1 1 1 1 2 2 1 1 2 5 5 7 13 21 25 26 24 20 16 12 10 10 6 3 3 3 4 6 8 7 4 0 -2 -2 -3 -3 -2 -1 -1 -1 0 1 1 1 2 4 5 5 3 1 -1 -2 -3 -3 -3 -2 -0 1 1 0 -0 -0 -0 0 0 1 1 1 1 0 -0 -0 -0 -0 -0 -0 0 1 3 5 5
-4 -4 -3 -2 -2 -2 -2 -3 -3 -3 -3 -3 -3 -2 -1 1 1 1 1 1 1 1 2 1 2 3 0 -0 -0 -1 -3 -1 -2 -3 -3 0 6 11 8 6 6 5 2 0 -2 -4 -1 4 5 2 1 3 1 -1 -2 -0 -2 -4 -2 -2 -2 -2 -1 -2 -2 -2 -1 4 10 14 11 7 3 1 -1 -3 -4 -3 -2 -0 1 1 0 -1 -1 -0 0 1 1 1 1 1 0 0 0 0 -0 -0 -0 0 1 2 4
-5 -5 -4 -3 -2 -1 -2 -3 -3 -3 -3 -3 -3 -2 -1 0 1 1 1 1 0 1 2 1 2 3 3 0 -1 -1 -2 -2 -2 -1 -3 -5 -3 -2 -6 -6 -4 -1 -1 -2 -4 -3 0 4 2 -1 -3 1 1 -1 -1 1 -1 -3 -2 -2 -2 -1 -1 -2 -3 -3 -4 -1 6 12 14 10 7 3 1 -1 -1 -1 -1 -1 -0 0 0 -0 -0 -0 0 1 1 1 1 2 2 2 2 1 -0 -0 -1 -0 0 1 2
-5 -4 -3 -2 -1 -1 -1 -1 -2 -2 -3 -2 -2 -1 -1 0 0 0 0 1 1 2 2 2 2 3 4 3 1 0 0 -2 -2 -1 -0 -4 -4 -3 -3 -3 0 2 -1 -2 -2 0 4 2 -1 -3 -3 3 3 0 -1 1 0 -1 -3 -1 0 0 -0 -2 -3 -4 -5 -4 1 6 8 9 8 5 1 -1 1 3 4 2 1 -0 0 0 1 1 1 0 0 0 1 2 4 5 4 2 0 -1 -1 -1 -1 -0 0
-1 -0 -0 0 1 1 1 1 0 -0 -0 -0 -0 -0 -0 1 1 1 1 3 3 3 2 2 1 1 2 4 2 0 0 -1 -2 -2 1 -1 -2 -2 0 3 3 2 3 0 1 2 3 3 0 -2 -4 4 4 1 -1 1 0 -1 -1 1 1 2 2 2 -1 -4 -5 -3 -1 2 3 5 6 5 2 1 0 2 5 5 4 2 2 2 2 2 2 1 0 -0 -0 1 3 4 4 2 1 -0 -0 -0 -0 -0 -0
3 3 2 2 2 2 3 3 3 3 2 2 2 2 2 3 2 2 2 4 4 2 1 1 0 -0 -0 2 2 1 -1 -1 -1 -1 -0 -1 -1 -1 0 4 4 3 3 1 2 3 2 2 1 -1 -1 1 2 2 2 0 -1 -1 1 1 2 4 8 7 2 -3 -3 -2 -1 -0 1 3 4 3 2 2 1 -0 0 1 2 3 3 3 3 3 3 2 1 -0 -1 0 1 1 1 3 3 3 2 2 1 1 -0
4 3 3 2 2 2 2 3 3 3 2 2 2 2 2 3 2 2 3 4 3 1 0 -1 -1 -1 -1 -0 1 1 -1 -0 1 1 -0 -2 -2 -2 1 2 4 5 1 1 1 2 3 -0 -1 0 3 0 -0 1 4 1 -1 -1 -0 0 1 1 1 1 -0 -1 -2 -1 -1 0 1 1 2 2 1 1 -0 -1 -2 -3 -2 -1 -0 0 1 1 2 2 1 0 -1 -1 -0 0 1 5 6 6 4 4 3 2 0
3 3 3 2 2 2 1 2 1 1 1 0 0 1 1 1 1 2 3 2 1 1 0 -1 -2 -2 -1 -1 0 1 0 1 1 2 2 -2 -5 -3 3 1 1 2 2 1 0 0 1 -2 -1 2 3 -1 -1 -0 2 2 2 2 1 0 0 -1 -2 -2 -1 -0 -1 -0 0 0 -0 -1 -0 0 0 -1 -2 -2 -3 -4 -3 -3 -3 -3 -3 -2 -1 0 1 0 -1 -1 -1 1 4 8 8 7 5 6 5 3 1
3 3 4 3 3 2 2 1 0 -1 -1 -1 -1 -1 -1 -1 -0 1 2 0 0 1 1 -0 -1 -1 -1 -1 0 1 1 2 2 2 3 -1 -5 -5 2 1 -0 -1 2 0 -0 -1 -2 -2 0 2 2 -1 -2 -1 -1 3 5 5 2 2 1 -1 -4 -3 -1 0 0 -0 -0 -0 -1 -0 -0 -0 -0 -1 -2 -2 -3 -2 -2 -2 -2 -3 -3 -3 -3 -2 -1 -0 -0 -1 -0 2 5 10 10 8 8 7 6 3 1
Height
5869 5869 5870 5870 5871 5871 5871 5872 5872 5872 5873 5873 5873 5873 5874 5874 5874 5874 5875 5875 5875 5876 5876 5876 5877 5877 5877 5877 5877 5877 5877 5877 5878 5878 5878 5878 5878 5879 5879 5879 5879 5879 5879 5879 5879 5879 5879 5878 5878 5878 5878 5879 5879 5879 5879 5879 5880 5880 5880 5880 5880 5880 5880 5880 5880 5880 5880 5880 5880 5880 5880 5880 5880 5880 5880 5880 5880 5880 5880 5880 5880 5880 5880 5879 5879 5879 5879 5878 5878 5878 5878 5877 5877 5877 5877 5877 5876 5876 5876 5875 5875 5874 5874
5867 5868 5869 5869 5869 5870 5870 5871 5871 5871 5872 5872 5872 5872 5873 5873 5873 5873 5874 5874 5874 5875 5875 5875 5876 5876 5876 5876 5876 5877 5877 5877 5877 5877 5877 5877 5878 5878 5878 5878 5879 5879 5879 5879 5879 5878 5878 5878 5878 5878 5878 5878 5879 5879 5879 5879 5879 5879 5879 5879 5880 5880 5880 5880 5880 5880 5880 5880 5880 5880 5880 5880 5879 5879 5879 5879 5879 5879 5879 5879 5879 5879 5879 5879 5879 5879 5878 5878 5878 5877 5877 5877 5877 5877 5877 5876 5876 5876 5875 5875 5874 5874 5873
5867 5867 5867 5868 5868 5868 5869 5869 5870 5871 5870 5871 5871 5872 5872 5872 5872 5872 5873 5873 5873 5874 5874 5874 5875 5875 5875 5875 5875 5876 5876 5876 5876 5876 5877 5877 5877 5877 5877 5878 5878 5878 5878 5878 5878 5878 5878 5877 5877 5877 5878 5878 5878 5878 5878 5878 5879 5879 5879 5879 5879 5879 5879 5879 5879 5879 5879 5879 5879 5879 5879 5879 5879 5879 5879 5879 5879 5879 5879 5879 5879 5878 5878 5878 5878 5878 5878 5877 5877 5877 5877 5877 5876 5876 5876 5876 5875 5875 5875 5874 5874 5873 5873
5865 5866 5866 5867 5867 5867 5867 5868 5868 5869 5870 5870 5870 5870 5871 5871 5871 5872 5872 5872 5872 5873 5873 5873 5874 5874 5874 5874 5875 5875 5875 5875 5875 5876 5876 5876 5876 5877 5877 5877 5877 5877 5878 5878 5878 5878 5877 5877 5877 5877 5877 5878 5878 5878 5878 5878 5878 5878 5878 5878 5878 5878 5878 5879 5879 5879 5878 5878 5878 5878 5878 5878 5878 5878 5878 5878 5878 5878 5878 5878 5878 5878 5878 5877 5877 5877 5877 5877 5877 5877 5876 5876 5876 5875 5875 5875 5875 5874 5874 5874 5873 5873 5872
5864 5864 5865 5865 5866 5866 5866 5867 5867 5868 5868 5869 5869 5870 5870 5870 5870 5870 5871 5871 5871 5872 5872 5872 5872 5873 5873 5873 5874 5874 5874 5874 5874 5875 5875 5875 5875 5876 5876 5876 5876 5877 5877 5877 5877 5877 5877 5877 5876 5876 5877 5877 5877 5877 5877 5877 5877 5878 5878 5878 5878 5878 5878 5878 5878 5878 5878 5878 5878 5878 5878 5877 5877 5877 5877 5877 5877 5877 5877 5877 5877 5877 5877 5877 5877 5877 5877 5876 5876 5876 5876 5876 5875 5875 5875 5874 5874 5874 5873 5873 5872 5872 5872
5862 5863 5863 5864 5864 5865 5865 5865 5866 5866 5867 5867 5868 5869 5869 5869 5869 5869 5870 5870 5870 5871 5871 5871 5872 5872 5872 5872 5872 5873 5873 5873 5873 5874 5874 5874 5875 5875 5875 5875 5875 5876 5876 5877 5877 5877 5877 5876 5876 5876 5876 5877 5877 5877 5877 5877 5877 5877 5877 5877 5877 5877 5877 5877 5877 5877 5877 5877 5877 5877 5877 5877 5877 5877 5877 5877 5877 5877 5877 5877 5877 5876 5876 5876 5876 5876 5876 5876 5875 5875 5875 5875 5874 5874 5874 5873 5873 5873 5872 5872 5872 5872 5871
5861 5861 5862 5862 5863 5863 5864 5864 5864 5865 5865 5866 5867 5867 5868 5868 5868 5868 5868 5869 5869 5869 5870 5870 5870 5871 5871 5871 5872 5872 5872 5872 5872 5873 5873 5873 5874 5874 5874 5874 5874 5875 5875 5876 5876 5876 5876 5876 5875 5875 5875 5876 5876 5876 5876 5876 5876 5877 5877 5877 5877 5877 5877 5877 5877 5877 5877 5877 5877 5877 5877 5876 5876 5876 5876 5876 5876 5876 5876 5876 5876 5876 5875 5875 5875 5875 5875 5875 5875 5874 5874 5874 5874 5873 5873 5873 5872 5872 5872 5872 5871 5871 5871
5859 5860 5861 5861 5862 5862 5862 5863 5863 5863 5864 5864 5865 5866 5866 5867 5867 5867 5867 5867 5868 5868 5868 5869 5869 5870 5870 5870 5871 5871 5871 5871 5872 5872 5872 5872 5873 5873 5873 5873 5873 5874 5874 5875 5875 5875 5875 5875 5875 5874 5875 5875 5875 5875 5875 5876 5876 5876 5876 5876 5876 5876 5876 5876 5876 5876 5876 5876 5876 5876 5876 5876 5876 5875 5875 5875 5875 5875 5875 5875 5875 5875 5875 5874 5874 5874 5874 5874 5874 5874 5873 5873 5873 5873 5872 5872 5872 5871 5871 5871 5870 5870 5870
5857 5858 5859 5860 5860 5861 5861 5862 5862 5862 5862 5863 5863 5864 5864 5865 5865 5866 5866 5867 5867 5867 5867 5868 5868 5868 5869 5869 5869 5870 5870 5870 5871 5871 5871 5871 5872 5872 5872 5872 5872 5873 5873 5873 5874 5874 5874 5874 5874 5874 5874 5874 5875 5875 5875 5875 5875 5875 5875 5875 5876 5876 5876 5876 5876 5875 5875 5875 5875 5875 5875 5875 5875 5875 5874 5874 5874 5874 5874 5874 5874 5874 5874 5873 5873 5873 5873 5873 5873 5873 5873 5872 5872 5872 5872 5871 5871 5870 5870 5870 5869 5869 5869
5855 5856 5857 5858 5859 5859 5860 5860 5861 5861 5861 5862 5862 5862 5863 5863 5864 5864 5865 5865 5866 5866 5866 5867 5867 5867 5867 5868 5868 5869 5869 5869 5870 5870 5870 5870 5871 5871 5871 5871 5872 5872 5872 5872 5873 5873 5873 5873 5873 5873 5873 5874 5874 5874 5874 5874 5874 5874 5874 5875 5875 5875 5875 5875 5875 5875 5875 5874 5874 5874 5874 5874 5874 5874 5874 5873 5873 5873 5873 5873 5873 5873 5873 5872 5872 5872 5872 5872 5872 5872 5872 5872 5871 5871 5871 5870 5870 5870 5869 5869 5869 5868 5868
5853 5855 5855 5856 5857 5857 5858 5859 5859 5860 5860 5860 5861 5861 5862 5862 5863 5863 5863 5864 5864 5865 5865 5865 5866 5866 5866 5867 5867 5867 5868 5868 5868 5869 5869 5869 5869 5870 5870 5870 5871 5871 5871 5871 5872 5872 5872 5872 5872 5872 5872 5872 5873 5873 5873 5873 5873 5874 5874 5874 5874 5874 5874 5874 5874 5874 5874 5874 5873 5873 5873 5873 5873 5873 5873 5872 5872 5872 5872 5872 5872 5872 5872 5872 5872 5872 5872 5871 5871 5871 5871 5871 5870 5870 5870 5869 5869 5869 5868 5868 5868 5867 5867
5852 5853 5854 5854 5855 5856 5857 5857 5857 5858 5858 5859 5859 5860 5860 5861 5861 5862 5862 5862 5863 5863 5864 5864 5864 5865 5865 5865 5866 5866 5867 5867 5867 5867 5868 5868 5868 5869 5869 5869 5870 5870 5870 5870 5871 5871 5871 5872 5871 5871 5871 5872 5872 5872 5872 5872 5872 5873 5873 5873 5873 5873 5873 5873 5873 5873 5873 5873 5872 5872 5872 5872 5872 5872 5872 5872 5872 5872 5872 5871 5871 5871 5871 5871 5871 5871 5870 5870 5870 5870 5870 5870 5869 5869 5869 5868 5868 5868 5867 5867 5867 5867 5867
5850 5851 5852 5852 5853 5854 5855 5855 5856 5857 5857 5857 5858 5858 5859 5859 5860 5860 5861 5861 5862 5862 5862 5863 5863 5863 5864 5864 5864 5865 5865 5866 5866 5867 5867 5867 5867 5867 5868 5868 5868 5869 5869 5869 5869 5870 5870 5870 5870 5870 5870 5870 5871 5871 5872 5872 5872 5872 5872 5872 5872 5872 5872 5872 5872 5872 5872 5872 5872 5872 5872 5871 5871 5871 5871 5871 5871 5871 5871 5870 5870 5870 5870 5870 5870 5870 5869 5869 5869 5869 5869 5869 5868 5868 5868 5868 5867 5867 5867 5866 5866 5866 5866
5848 5849 5850 5851 5852 5852 5853 5853 5854 5855 5855 5856 5856 5857 5857 5858 5858 5859 5859 5860 5860 5861 5861 5861 5862 5862 5862 5862 5863 5863 5864 5864 5865 5865 5865 5866 5866 5866 5867 5867 5867 5867 5868 5868 5868 5868 5869 5869 5869 5869 5869 5869 5869 5870 5870 5870 5871 5871 5871 5871 5871 5871 5871 5871 5871 5871 5871 5871 5871 5871 5870 5870 5870 5870 5870 5870 5870 5870 5870 5869 5869 5869 5869 5869 5869 5868 5868 5868 5868 5868 5868 5867 5867 5867 5867 5867 5866 5866 5866 5865 5865 5865 5864
5846 5847 5848 5849 5851 5852 5852 5852 5852 5853 5853 5854 5854 5855 5856 5856 5857 5857 5858 5858 5859 5859 5860 5860 5860 5861 5861 5861 5862 5862 5862 5863 5863 5864 5864 5864 5865 5865 5866 5866 5866 5867 5867 5867 5867 5867 5867 5868 5868 5868 5867 5867 5868 5868 5869 5869 5869 5869 5870 5870 5870 5870 5870 5870 5870 5870 5870 5870 5870 5870 5869 5869 5869 5869 5869 5869 5869 5869 5868 5868 5868 5868 5868 5868 5867 5867 5867 5867 5867 5867 5867 5867 5866 5866 5866 5866 5865 5865 5865 5864 5864 5864 5863
5844 5845 5846 5847 5850 5851 5851 5851 5851 5851 5852 5852 5853 5853 5854 5854 5855 5856 5856 5857 5857 5858 5858 5858 5859 5859 5859 5860 5860 5861 5861 5862 5862 5862 5863 5863 5863 5864 5864 5865 5865 5865 5865 5866 5866 5866 5866 5867 5867 5867 5867 5867 5867 5867 5867 5868 5868 5868 5868 5868 5868 5869 5869 5869 5868 5868 5868 5868 5868 5868 5868 5868 5868 5868 5868 5868 5868 5867 5867 5867 5867 5867 5867 5867 5867 5867 5866 5866 5866 5866 5866 5866 5865 5865 5865 5865 5864 5864 5864 5863 5863 5863 5862
5842 5843 5844 5845 5847 5848 5849 5849 5849 5850 5850 5851 5851 5852 5852 5853 5853 5854 5854 5855 5856 5856 5857 5857 5857 5857 5858 5858 5858 5859 5859 5860 5860 5861 5861 5862 5862 5862 5863 5863 5864 5864 5864 5864 5864 5865 5865 5865 5865 5865 5865 5865 5865 5866 5866 5867 5867 5867 5867 5867 5867 5867 5867 5867 5867 5867 5867 5867 5867 5867 5867 5867 5867 5867 5867 5867 5867 5866 5866 5866 5866 5866 5866 5866 5866 5865 5865 5865 5865 5865 5865 5864 5864 5864 5864 5863 5863 5863 5862 5862 5862 5862 5862
5840 5841 5842 5843 5845 5846 5847 5847 5847 5847 5849 5849 5850 5850 5851 5851 5852 5852 5853 5853 5854 5854 5855 5855 5856 5856 5856 5857 5857 5857 5858 5858 5859 5859 5860 5860 5861 5861 5862 5862 5862 5863 5863 5863 5863 5863 5863 5864 5864 5864 5864 5864 5864 5864 5865 5865 5866 5866 5866 5866 5866 5866 5866 5866 5866 5866 5866 5866 5866 5866 5866 5866 5866 5866 5866 5866 5866 5865 5865 5865 5865 5865 5865 5865 5864 5864 5864 5864 5864 5864 5863 5863 5863 5863 5862 5862 5862 5862 5862 5861 5861 5861 5860
5838 5839 5840 5841 5842 5843 5843 5844 5845 5846 5847 5847 5848 5848 5849 5850 5850 5851 5851 5852 5852 5852 5853 5853 5854 5854 5855 5855 5855 5856 5856 5857 5857 5858 5858 5859 5859 5860 5860 5861 5861 5861 5862 5862 5862 5862 5862 5862 5862 5863 5863 5863 5863 5863 5863 5864 5864 5865 5865 5865 5865 5865 5865 5865 5865 5865 5865 5865 5865 5865 5865 5865 5865 5865 5865 5865 5865 5864 5864 5864 5864 5864 5864 5863 5863 5863 5863 5863 5863 5862 5862 5862 5862 5862 5862 5861 5861 5861 5860 5860 5860 5859 5859
5836 5837 5838 5839 5840 5841 5841 5842 5844 5845 5845 5846 5846 5847 5847 5848 5849 5849 5850 5850 5850 5851 5851 5852 5852 5852 5853 5853 5854 5854 5855 5855 5856 5856 5857 5857 5858 5858 5859 5859 5859 5860 5860 5860 5860 5861 5861 5861 5861 5861 5862 5862 5862 5862 5862 5862 5863 5863 5863 5863 5863 5863 5863 5863 5863 5863 5863 5864 5864 5864 5864 5864 5863 5863 5863 5863 5863 5863 5863 5863 5862 5862 5862 5862 5862 5862 5862 5862 5862 5862 5861 5861 5861 5861 5860 5860 5860 5859 5859 5859 5858 5858 5858
5833 5835 5836 5837 5837 5838 5838 5840 5841 5843 5844 5845 5845 5845 5846 5847 5847 5847 5848 5848 5849 5849 5849 5850 5850 5851 5851 5852 5852 5852 5853 5853 5854 5854 5855 5856 5856 5857 5857 5857 5858 5858 5858 5859 5859 5859 5859 5860 5860 5860 5860 5860 5860 5860 5861 5861 5862 5862 5862 5862 5862 5862 5862 5862 5862 5862 5862 5862 5862 5862 5862 5862 5862 5862 5862 5862 5862 5862 5862 5862 5862 5861 5861 5861 5861 5861 5861 5860 5860 5860 5860 5860 5860 5859 5859 5859 5858 5858 5858 5857 5857 5857 5857
5831 5832 5833 5834 5835 5836 5837 5838 5839 5840 5842 5842 5844 5844 5844 5845 5845 5846 5847 5847 5847 5847 5848 5848 5848 5849 5849 5850 5850 5851 5851 5852 5852 5853 5853 5854 5855 5855 5856 5856 5856 5857 5857 5857 5857 5857 5858 5858 5858 5858 5859 5859 5859 5859 5859 5860 5860 5860 5860 5861 5861 5861 5861 5861 5861 5861 5861 5861 5861 5861 5861 5861 5861 5861 5861 5861 5861 5861 5860 5860 5860 5860 5860 5860 5860 5859 5859 5859 5859 5859 5859 5859 5858 5858 5858 5857 5857 5857 5857 5856 5856 5856 5856
5828 5829 5831 5832 5832 5833 5834 5835 5837 5837 5838 5839 5841 5842 5843 5844 5844 5844 5845 5845 5846 5846 5846 5847 5847 5847 5847 5848 5848 5849 5849 5850 5850 5851 5851 5852 5853 5853 5854 5854 5854 5855 5855 5855 5856 5856 5856 5857 5857 5857 5857 5857 5857 5858 5858 5858 5858 5859 5859 5859 5859 5859 5859 5859 5859 5859 5859 5860 5860 5860 5860 5860 5860 5860 5859 5859 5859 5859 5859 5859 5859 5859 5859 5858 5858 5858 5858 5858 5858 5858 5857 5857 5857 5857 5857 5856 5856 5856 5855 5855 5855 5855 5854
5826 5827 5828 5829 5830 5831 5832 5833 5834 5835 5836 5837 5838 5839 5841 5842 5842 5842 5843 5843 5844 5844 5845 5845 5845 5845 5846 5846 5847 5847 5847 5848 5848 5849 5849 5850 5851 5852 5852 5852 5853 5853 5853 5853 5854 5854 5854 5855 5855 5855 5856 5856 5856 5856 5856 5857 5857 5857 5857 5857 5857 5858 5858 5858 5858 5858 5858 5858 5858 5858 5858 5858 5858 5858 5858 5858 5858 5858 5858 5858 5857 5857 5857 5857 5857 5857 5857 5857 5857 5856 5856 5856 5856 5856 5855 5855 5855 5854 5854 5854 5853 5853 5853
5823 5824 5825 5826 5827 5828 5830 5831 5832 5833 5834 5835 5836 5837 5838 5839 5840 5840 5841 5841 5842 5842 5843 5843 5843 5844 5844 5844 5845 5845 5846 5846 5847 5847 5847 5848 5849 5849 5850 5851 5851 5851 5851 5852 5852 5852 5852 5853 5853 5854 5854 5854 5854 5855 5855 5855 5856 5856 5856 5856 5856 5856 5856 5856 5857 5857 5857 5857 5857 5857 5857 5857 5857 5857 5857 5857 5857 5857 5857 5856 5856 5856 5856 5856 5856 5856 5856 5855 5855 5855 5855 5855 5854 5854 5854 5853 5853 5853 5853 5852 5852 5852 5852
5820 5821 5822 5823 5825 5826 5827 5828 5829 5830 5832 5832 5834 5835 5836 5837 5837 5838 5839 5839 5840 5841 5841 5841 5842 5842 5842 5842 5843 5843 5844 5844 5845 5845 5846 5846 5847 5847 5848 5848 5849 5849 5849 5850 5850 5850 5851 5851 5852 5852 5852 5852 5852 5853 5853 5853 5854 5854 5854 5854 5855 5855 5855 5855 5855 5855 5855 5855 5855 5855 5856 5856 5856 5856 5855 5855 5855 5855 5855 5855 5855 5855 5855 5855 5854 5854 5854 5854 5854 5854 5853 5853 5853 5853 5852 5852 5852 5852 5851 5851 5851 5851 5850
5817 5818 5820 5821 5822 5823 5825 5826 5827 5828 5829 5830 5832 5833 5834 5835 5836 5836 5837 5837 5838 5839 5839 5839 5840 5840 5840 5841 5841 5842 5842 5842 5843 5843 5844 5844 5845 5845 5846 5847 5847 5847 5847 5848 5848 5848 5849 5849 5850 5850 5850 5851 5851 5851 5851 5852 5852 5852 5853 5853 5853 5853 5853 5853 5853 5853 5853 5853 5853 5854 5853 5854 5854 5854 5854 5854 5854 5854 5854 5853 5853 5853 5853 5853 5853 5853 5853 5852 5852 5852 5852 5852 5852 5851 5851 5851 5850 5850 5850 5850 5849 5849 5849
5814 5816 5817 5818 5820 5821 5822 5823 5824 5825 5827 5827 5829 5830 5831 5832 5833 5834 5835 5835 5836 5836 5837 5837 5837 5838 5838 5839 5839 5840 5840 5840 5841 5841 5842 5842 5843 5843 5844 5844 5845 5845 5846 5846 5846 5847 5847 5847 5847 5848 5848 5848 5849 5849 5849 5850 5850 5851 5851 5851 5851 5851 5852 5852 5852 5852 5852 5852 5852 5852 5852 5852 5852 5852 5852 5852 5852 5852 5852 5852 5852 5852 5852 5852 5852 5851 5851 5851 5851 5851 5851 5850 5850 5850 5850 5849 5849 5849 5848 5848 5848 5848 5847
5812 5813 5815 5816 5817 5818 5819 5820 5822 5823 5824 5825 5826 5827 5828 5829 5830 5831 5832 5832 5833 5834 5835 5835 5835 5836 5836 5837 5837 5837 5838 5838 5839 5839 5840 5840 5841 5841 5842 5842 5843 5843 5843 5844 5844 5844 5845 5845 5846 5846 5846 5847 5847 5847 5847 5847 5848 5848 5849 5849 5849 5850 5850 5850 5850 5850 5850 5850 5850 5850 5850 5851 5851 5851 5851 5851 5851 5851 5851 5851 5850 5850 5850 5850 5850 5850 5850 5850 5849 5849 5849 5849 5848 5848 5848 5848 5847 5847 5847 5847 5847 5846 5846
5810 5811 5812 5813 5814 5815 5816 5817 5819 5820 5821 5822 5823 5824 5825 5826 5827 5828 5829 5830 5831 5831 5832 5832 5833 5833 5834 5834 5835 5835 5836 5836 5837 5837 5837 5838 5838 5839 5839 5840 5840 5841 5841 5842 5842 5842 5843 5843 5843 5844 5844 5844 5845 5845 5845 5845 5846 5847 5847 5847 5847 5847 5848 5848 5848 5848 5848 5848 5848 5848 5849 5849 5850 5849 5849 5849 5849 5849 5849 5849 5849 5849 5848 5848 5848 5848 5848 5848 5848 5847 5847 5847 5847 5847 5847 5846 5846 5846 5845 5845 5845 5845 5845
5807 5808 5809 5810 5811 5812 5813 5814 5815 5817 5818 5819 5820 5821 5822 5823 5824 5825 5827 5827 5828 5829 5829 5830 5830 5831 5831 5832 5832 5833 5833 5834 5835 5835 5835 5836 5836 5837 5837 5837 5838 5839 5839 5839 5840 5840 5841 5841 5841 5842 5842 5842 5842 5842 5843 5843 5844 5844 5845 5845 5845 5846 5846 5846 5846 5847 5847 5847 5847 5847 5847 5847 5847 5848 5847 5847 5847 5847 5847 5847 5847 5847 5847 5847 5847 5847 5847 5846 5846 5846 5846 5846 5845 5845 5845 5845 5844 5844 5844 5844 5843 5843 5843
5804 5805 5806 5807 5807 5809 5810 5812 5812 5814 5815 5816 5816 5817 5818 5820 5821 5822 5823 5824 5825 5826 5827 5827 5827 5828 5829 5829 5830 5830 5831 5832 5832 5833 5833 5833 5834 5834 5835 5835 5836 5836 5837 5837 5838 5838 5838 5839 5839 5839 5840 5840 5840 5841 5841 5841 5841 5842 5842 5843 5843 5843 5844 5844 5844 5844 5845 5845 5845 5845 5845 5845 5845 5845 5845 5845 5845 5845 5846 5846 5845 5845 5845 5845 5845 5845 5845 5845 5845 5844 5844 5844 5844 5843 5843 5843 5843 5842 5842 5842 5842 5842 5842
5802 5802 5802 5803 5804 5805 5807 5809 5810 5812 5813 5812 5812 5814 5815 5816 5817 5818 5820 5821 5822 5823 5823 5824 5825 5826 5826 5827 5827 5828 5829 5830 5830 5831 5831 5831 5831 5832 5832 5832 5833 5834 5834 5835 5835 5836 5836 5837 5837 5837 5837 5838 5838 5838 5838 5839 5839 5840 5840 5841 5841 5842 5842 5842 5842 5842 5842 5843 5843 5843 5843 5843 5843 5843 5843 5843 5843 5844 5844 5844 5844 5843 5843 5843 5843 5843 5843 5843 5843 5843 5842 5842 5842 5842 5842 5842 5841 5841 5841 5841 5840 5840 5840
5799 5799 5800 5800 5802 5803 5804 5806 5807 5809 5811 5810 5809 5810 5811 5812 5813 5815 5816 5817 5818 5819 5821 5821 5822 5823 5823 5824 5825 5825 5826 5827 5828 5828 5828 5828 5829 5829 5829 5830 5830 5831 5832 5832 5833 5833 5834 5834 5834 5835 5835 5835 5836 5836 5836 5837 5837 5837 5838 5838 5839 5839 5839 5840 5840 5840 5840 5841 5841 5841 5841 5841 5842 5842 5842 5842 5842 5842 5842 5842 5842 5842 5842 5842 5842 5842 5842 5841 5841 5841 5841 5841 5841 5840 5840 5840 5840 5839 5839 5839 5839 5838 5838
5796 5797 5797 5798 5799 5800 5801 5802 5804 5806 5808 5809 5808 5807 5807 5809 5810 5811 5812 5813 5815 5817 5818 5819 5819 5820 5821 5822 5822 5822 5823 5825 5825 5825 5826 5826 5826 5826 5827 5827 5827 5828 5829 5830 5830 5831 5831 5832 5832 5832 5832 5833 5833 5834 5834 5834 5835 5835 5835 5836 5837 5837 5837 5837 5838 5838 5838 5838 5838 5839 5839 5839 5839 5840 5840 5840 5840 5840 5840 5840 5840 5840 5840 5840 5840 5840 5840 5840 5839 5839 5839 5839 5839 5839 5838 5838 5838 5838 5837 5837 5837 5837 5837
5793 5794 5795 5796 5797 5797 5798 5799 5800 5801 5803 5805 5806 5805 5805 5805 5806 5807 5808 5810 5811 5813 5814 5816 5817 5818 5818 5819 5820 5820 5821 5823 5823 5822 5823 5823 5823 5823 5824 5824 5825 5825 5826 5827 5827 5828 5829 5829 5830 5830 5830 5831 5831 5831 5832 5832 5832 5832 5833 5833 5834 5834 5835 5835 5835 5836 5836 5836 5836 5837 5837 5837 5837 5837 5837 5838 5838 5838 5838 5838 5838 5838 5838 5838 5838 5838 5838 5838 5838 5837 5837 5837 5837 5837 5837 5837 5836 5836 5836 5836 5835 5835 5835
5790 5791 5792 5793 5794 5795 5796 5797 5797 5797 5797 5799 5802 5803 5803 5803 5803 5804 5804 5806 5807 5809 5811 5812 5814 5815 5815 5816 5817 5817 5818 5819 5820 5819 5820 5820 5821 5821 5821 5822 5822 5822 5823 5823 5824 5825 5826 5826 5827 5827 5828 5828 5828 5829 5829 5830 5830 5830 5831 5831 5832 5832 5832 5833 5833 5833 5833 5834 5834 5834 5835 5835 5835 5835 5836 5836 5836 5836 5836 5836 5836 5836 5836 5836 5836 5836 5836 5836 5836 5836 5836 5836 5835 5835 5835 5835 5835 5834 5834 5834 5834 5833 5833
5787 5788 5790 5791 5792 5792 5793 5794 5794 5794 5794 5794 5795 5797 5800 5802 5803 5803 5802 5802 5804 5805 5807 5809 5810 5811 5812 5813 5814 5814 5815 5816 5817 5817 5817 5817 5817 5818 5818 5819 5819 5819 5820 5820 5821 5821 5822 5823 5824 5825 5825 5826 5826 5826 5827 5827 5827 5828 5828 5829 5829 5829 5830 5830 5831 5831 5831 5832 5832 5832 5832 5832 5833 5833 5833 5833 5833 5834 5834 5834 5834 5834 5834 5834 5834 5834 5834 5834 5834 5834 5834 5834 5833 5833 5833 5833 5833 5833 5832 5832 5832 5832 5832
5785 5786 5787 5788 5789 5790 5790 5792 5792 5792 5792 5791 5791 5792 5794 5797 5799 5801 5802 5802 5801 5802 5803 5805 5807 5808 5809 5810 5811 5811 5812 5812 5813 5813 5813 5814 5814 5815 5816 5816 5816 5816 5817 5817 5817 5818 5819 5820 5821 5822 5822 5823 5823 5824 5824 5825 5825 5825 5826 5826 5827 5827 5827 5828 5828 5828 5829 5829 5829 5830 5830 5830 5830 5831 5831 5831 5831 5831 5832 5832 5832 5832 5832 5832 5832 5832 5832 5832 5832 5832 5832 5832 5831 5832 5831 5831 5831 5831 5831 5831 5830 5830 5830
5782 5783 5784 5785 5786 5787 5788 5789 5790 5790 5791 5789 5789 5790 5791 5792 5792 5795 5799 5800 5800 5799 5800 5801 5803 5805 5806 5807 5807 5808 5808 5809 5809 5809 5810 5810 5811 5812 5813 5813 5813 5814 5814 5814 5815 5815 5816 5817 5817 5818 5819 5820 5821 5821 5822 5822 5823 5823 5823 5824 5824 5824 5825 5825 5826 5826 5827 5827 5827 5827 5827 5828 5828 5828 5828 5829 5829 5829 5829 5829 5829 5829 5829 5830 5830 5830 5830 5830 5830 5830 5830 5830 5829 5829 5829 5830 5830 5829 5829 5829 5828 5828 5828
5779 5780 5781 5782 5783 5784 5787 5787 5787 5787 5787 5787 5788 5789 5789 5789 5790 5791 5793 5797 5799 5799 5798 5798 5799 5801 5802 5803 5804 5804 5805 5805 5806 5806 5807 5807 5808 5808 5810 5810 5811 5811 5812 5812 5812 5813 5813 5814 5815 5816 5817 5817 5818 5819 5819 5820 5820 5821 5821 5821 5822 5822 5822 5823 5823 5824 5824 5824 5824 5825 5825 5825 5826 5826 5826 5826 5827 5827 5827 5827 5827 5827 5827 5827 5827 5828 5828 5828 5828 5828 5828 5827 5827 5827 5828 5828 5827 5827 5827 5827 5827 5826 5826
5777 5777 5778 5779 5780 5781 5784 5784 5784 5784 5784 5785 5787 5788 5788 5788 5789 5790 5790 5792 5795 5797 5798 5797 5797 5797 5798 5799 5800 5800 5801 5802 5803 5804 5804 5804 5805 5805 5806 5807 5808 5808 5809 5809 5810 5810 5811 5812 5812 5813 5814 5814 5815 5816 5817 5817 5818 5818 5818 5819 5819 5819 5820 5820 5821 5821 5822 5822 5822 5822 5822 5823 5823 5823 5824 5824 5824 5824 5824 5824 5824 5825 5825 5825 5825 5825 5826 5826 5826 5825 5826 5826 5825 5825 5826 5825 5825 5825 5825 5825 5824 5824 5824
5773 5775 5776 5777 5777 5777 5778 5780 5780 5781 5782 5782 5784 5786 5787 5787 5788 5788 5788 5788 5789 5792 5794 5796 5796 5795 5796 5797 5796 5796 5797 5798 5799 5801 5802 5802 5802 5802 5803 5803 5805 5806 5806 5806 5807 5807 5808 5809 5810 5810 5811 5812 5813 5814 5814 5815 5815 5815 5816 5816 5816 5817 5817 5817 5818 5818 5819 5819 5820 5820 5820 5820 5821 5821 5821 5822 5822 5822 5822 5822 5822 5822 5822 5823 5823 5823 5823 5823 5823 5823 5823 5823 5823 5823 5823 5823 5823 5823 5823 5823 5822 5822 5822
5771 5772 5773 5773 5774 5774 5775 5775 5776 5777 5778 5779 5780 5782 5782 5782 5783 5784 5785 5786 5787 5787 5789 5791 5793 5793 5792 5792 5792 5792 5792 5794 5796 5797 5798 5799 5799 5799 5799 5800 5801 5802 5803 5803 5804 5804 5805 5806 5807 5807 5808 5810 5811 5811 5812 5812 5812 5813 5813 5813 5814 5814 5814 5815 5815 5816 5816 5817 5817 5817 5818 5818 5818 5818 5819 5819 5819 5819 5819 5820 5820 5820 5820 5820 5820 5821 5821 5821 5821 5821 5821 5821 5821 5821 5821 5821 5821 5821 5821 5821 5821 5820 5820
5767 5768 5770 5771 5771 5772 5772 5772 5773 5774 5775 5777 5777 5777 5778 5779 5780 5781 5782 5783 5784 5785 5786 5787 5788 5789 5788 5788 5788 5788 5789 5791 5792 5793 5794 5795 5796 5796 5796 5797 5797 5798 5799 5800 5801 5802 5802 5803 5804 5805 5806 5807 5808 5808 5809 5809 5810 5810 5810 5811 5811 5812 5812 5812 5812 5813 5813 5814 5814 5815 5815 5815 5815 5816 5816 5817 5817 5817 5817 5817 5817 5817 5817 5817 5818 5818 5818 5818 5818 5818 5818 5818 5818 5818 5818 5818 5818 5818 5818 5818 5818 5818 5818
5764 5765 5766 5767 5768 5768 5769 5769 5770 5770 5772 5774 5775 5775 5776 5777 5778 5779 5780 5781 5782 5782 5783 5784 5784 5784 5784 5785 5785 5785 5785 5787 5788 5788 5789 5791 5792 5792 5793 5793 5794 5795 5796 5797 5797 5798 5799 5800 5801 5802 5803 5804 5805 5805 5806 5807 5807 5807 5808 5808 5808 5809 5809 5809 5809 5810 5810 5811 5811 5812 5812 5812 5813 5813 5813 5814 5814 5814 5814 5814 5814 5815 5815 5815 5816 5816 5816 5816 5816 5816 5816 5816 5816 5816 5816 5816 5816 5816 5816 5816 5816 5816 5816
5761 5762 5763 5764 5765 5765 5766 5766 5767 5767 5768 5770 5772 5773 5774 5774 5775 5776 5777 5777 5778 5779 5780 5782 5782 5782 5782 5782 5782 5782 5782 5783 5784 5785 5785 5786 5787 5788 5789 5790 5791 5791 5792 5793 5794 5795 5796 5797 5798 5799 5800 5801 5802 5802 5803 5803 5804 5805 5806 5806 5806 5806 5806 5806 5807 5807 5807 5807 5808 5808 5809 5809 5810 5810 5811 5811 5812 5812 5812 5812 5812 5812 5812 5812 5813 5813 5813 5813 5813 5813 5813 5813 5813 5814 5814 5814 5813 5813 5813 5813 5813 5813 5813
5757 5758 5759 5760 5761 5762 5762 5763 5763 5764 5765 5767 5768 5770 5771 5772 5772 5772 5773 5774 5775 5776 5777 5779 5780 5780 5780 5780 5780 5780 5780 5781 5781 5782 5782 5781 5782 5783 5785 5786 5787 5788 5788 5790 5791 5792 5792 5793 5794 5795 5797 5797 5798 5799 5800 5800 5802 5802 5803 5803 5803 5803 5803 5803 5803 5804 5804 5804 5805 5805 5806 5806 5807 5807 5807 5808 5808 5809 5809 5809 5809 5809 5809 5810 5810 5810 5811 5811 5811 5811 5811 5811 5811 5811 5811 5811 5811 5811 5811 5810 5811 5811 5811
5752 5754 5755 5757 5757 5758 5759 5760 5761 5761 5762 5763 5765 5766 5767 5768 5769 5769 5770 5771 5772 5772 5774 5777 5778 5779 5778 5778 5778 5778 5778 5778 5778 5779 5780 5780 5779 5779 5780 5782 5783 5784 5785 5786 5787 5788 5788 5789 5790 5792 5793 5794 5795 5796 5796 5797 5798 5799 5800 5801 5801 5801 5801 5801 5801 5800 5801 5801 5801 5802 5802 5802 5803 5804 5804 5805 5805 5806 5806 5806 5807 5807 5807 5807 5807 5807 5809 5808 5808 5808 5808 5808 5808 5808 5808 5808 5808 5808 5808 5808 5808 5808 5808
5749 5750 5752 5753 5754 5755 5756 5757 5757 5758 5759 5760 5761 5762 5764 5765 5766 5766 5767 5768 5769 5770 5771 5774 5776 5777 5775 5775 5776 5776 5776 5776 5777 5779 5780 5779 5778 5778 5778 5779 5780 5780 5781 5782 5783 5784 5785 5786 5787 5788 5789 5790 5791 5792 5793 5794 5795 5796 5797 5797 5798 5798 5798 5798 5797 5797 5797 5797 5798 5798 5798 5799 5799 5800 5801 5801 5802 5802 5802 5803 5803 5804 5804 5804 5804 5804 5805 5806 5806 5806 5806 5806 5806 5806 5806 5806 5805 5805 5806 5806 5806 5806 5806
5745 5747 5748 5749 5751 5752 5753 5754 5755 5755 5756 5757 5757 5759 5760 5761 5762 5763 5764 5765 5766 5767 5768 5768 5771 5773 5772 5772 5773 5774 5774 5774 5775 5777 5778 5777 5776 5777 5777 5778 5778 5778 5778 5779 5780 5781 5782 5783 5784 5785 5786 5787 5788 5788 5789 5790 5791 5792 5792 5793 5794 5795 5795 5795 5794 5794 5794 5794 5795 5795 5795 5795 5795 5796 5797 5797 5798 5798 5799 5799 5800 5800 5801 5801 5801 5802 5802 5802 5802 5802 5803 5803 5802 5802 5802 5802 5802 5803 5803 5803 5803 5803 5803
5742 5743 5745 5746 5747 5748 5749 5751 5752 5752 5753 5754 5755 5756 5757 5758 5759 5760 5761 5762 5763 5764 5765 5765 5767 5767 5769 5770 5770 5771 5771 5770 5771 5772 5774 5774 5774 5775 5775 5775 5776 5776 5776 5777 5777 5778 5780 5781 5782 5783 5783 5783 5784 5785 5785 5786 5787 5788 5788 5789 5790 5791 5791 5791 5791 5791 5791 5791 5792 5792 5792 5792 5792 5792 5793 5793 5794 5795 5795 5796 5796 5797 5797 5798 5798 5798 5799 5799 5799 5800 5800 5800 5800 5800 5800 5800 5800 5800 5801 5801 5801 5801 5800
5738 5739 5741 5742 5744 5745 5746 5747 5748 5749 5750 5751 5752 5753 5754 5755 5756 5757 5758 5758 5759 5760 5761 5762 5763 5764 5765 5767 5767 5768 5768 5767 5767 5767 5769 5770 5772 5772 5772 5772 5772 5772 5773 5774 5775 5777 5778 5779 5780 5780 5780 5780 5780 5781 5781 5782 5783 5783 5784 5785 5786 5787 5787 5788 5788 5788 5788 5788 5789 5789 5788 5788 5788 5789 5789 5790 5790 5791 5792 5792 5793 5793 5793 5794 5794 5795 5795 5796 5796 5797 5797 5797 5797 5797 5797 5797 5797 5797 5797 5798 5799 5799 5798
5734 5736 5737 5739 5740 5742 5743 5744 5745 5746 5747 5748 5749 5750 5751 5752 5753 5754 5755 5756 5756 5757 5758 5759 5760 5761 5762 5762 5763 5764 5764 5764 5764 5764 5764 5766 5767 5768 5768 5768 5768 5768 5770 5771 5772 5774 5776 5777 5777 5777 5777 5777 5777 5777 5778 5778 5779 5780 5780 5781 5782 5783 5783 5784 5784 5785 5785 5785 5785 5785 5784 5785 5785 5786 5786 5786 5787 5787 5788 5788 5789 5790 5790 5790 5791 5791 5792 5792 5793 5793 5793 5793 5793 5793 5793 5793 5794 5794 5794 5794 5795 5796 5796
5731 5732 5734 5736 5737 5738 5740 5741 5742 5742 5743 5745 5746 5747 5748 5750 5750 5751 5752 5752 5753 5754 5755 5756 5757 5757 5758 5758 5759 5760 5761 5761 5762 5762 5762 5762 5763 5763 5763 5765 5766 5767 5768 5769 5770 5771 5773 5774 5774 5773 5774 5775 5775 5774 5775 5776 5776 5776 5776 5777 5778 5778 5779 5780 5780 5781 5781 5781 5781 5780 5780 5781 5781 5782 5783 5783 5784 5784 5784 5785 5785 5786 5786 5787 5787 5787 5788 5789 5789 5789 5790 5790 5790 5790 5790 5790 5790 5791 5791 5791 5792 5792 5793
5728 5730 5731 5733 5734 5735 5736 5737 5738 5740 5741 5742 5743 5745 5745 5746 5747 5748 5749 5750 5751 5751 5752 5752 5753 5754 5754 5755 5756 5757 5757 5758 5758 5758 5759 5759 5760 5760 5761 5763 5764 5765 5765 5766 5767 5769 5770 5770 5770 5770 5771 5772 5772 5772 5772 5773 5773 5772 5773 5773 5774 5774 5775 5775 5776 5776 5777 5777 5777 5776 5777 5777 5778 5778 5779 5780 5781 5781 5781 5781 5781 5782 5782 5782 5783 5784 5784 5785 5785 5786 5786 5787 5787 5787 5787 5787 5787 5787 5787 5787 5788 5788 5789
5726 5727 5729 5730 5731 5732 5733 5734 5736 5737 5737 5738 5740 5741 5742 5743 5744 5745 5746 5747 5748 5748 5749 5749 5749 5750 5751 5752 5752 5753 5754 5754 5755 5755 5756 5756 5757 5758 5760 5760 5760 5760 5762 5762 5764 5766 5766 5767 5767 5767 5768 5770 5769 5769 5769 5770 5770 5770 5770 5770 5770 5771 5771 5771 5771 5771 5772 5772 5773 5773 5774 5774 5775 5776 5776 5777 5777 5777 5777 5777 5777 5777 5778 5778 5779 5780 5780 5781 5781 5782 5782 5783 5783 5783 5784 5784 5783 5783 5783 5783 5783 5784 5785
5724 5725 5725 5726 5727 5728 5730 5731 5732 5733 5734 5735 5736 5737 5738 5740 5742 5742 5742 5744 5744 5744 5745 5745 5746 5747 5747 5748 5748 5749 5750 5751 5752 5752 5752 5752 5753 5754 5756 5757 5757 5757 5758 5759 5761 5762 5762 5763 5764 5764 5765 5766 5766 5766 5767 5766 5767 5767 5767 5767 5767 5767 5767 5767 5766 5767 5767 5768 5770 5770 5771 5772 5772 5772 5773 5773 5773 5773 5773 5773 5773 5773 5773 5774 5774 5775 5776 5777 5777 5778 5779 5779 5779 5780 5780 5780 5779 5779 5779 5779 5779 5780 5781
5720 5721 5722 5722 5723 5724 5726 5727 5728 5729 5730 5731 5732 5733 5734 5736 5737 5738 5739 5740 5740 5741 5741 5742 5742 5743 5743 5744 5745 5746 5746 5747 5748 5749 5749 5749 5750 5751 5752 5753 5754 5755 5755 5756 5757 5758 5758 5759 5760 5761 5762 5762 5762 5763 5764 5763 5763 5764 5764 5764 5763 5763 5762 5762 5763 5763 5764 5765 5766 5767 5767 5768 5769 5769 5769 5769 5769 5770 5770 5770 5770 5769 5769 5769 5770 5771 5772 5773 5774 5774 5775 5775 5776 5776 5776 5776 5776 5775 5775 5775 5776 5776 5777
5716 5717 5718 5719 5720 5721 5721 5722 5723 5724 5725 5726 5727 5729 5730 5731 5732 5733 5734 5735 5736 5737 5737 5738 5739 5739 5740 5740 5741 5742 5742 5744 5745 5746 5746 5745 5746 5747 5749 5749 5750 5751 5751 5752 5753 5754 5754 5754 5756 5757 5758 5757 5758 5759 5760 5760 5761 5761 5761 5760 5760 5760 5759 5759 5760 5761 5761 5762 5762 5763 5764 5764 5765 5765 5765 5766 5766 5766 5766 5766 5766 5766 5765 5765 5766 5766 5767 5768 5769 5770 5771 5772 5772 5772 5773 5772 5772 5772 5772 5772 5772 5773 5773
5712 5713 5714 5715 5716 5717 5717 5718 5719 5720 5721 5722 5723 5724 5726 5727 5728 5729 5730 5731 5732 5732 5733 5734 5735 5736 5736 5737 5738 5738 5739 5740 5741 5742 5742 5742 5742 5743 5745 5745 5745 5746 5747 5747 5748 5749 5750 5751 5752 5752 5753 5753 5754 5755 5756 5757 5758 5758 5757 5757 5757 5756 5756 5757 5757 5757 5758 5758 5759 5760 5760 5761 5761 5762 5762 5762 5762 5762 5762 5762 5762 5762 5762 5761 5761 5762 5762 5764 5765 5766 5767 5768 5768 5769 5769 5769 5769 5769 5770 5770 5770 5770 5770